sat.trackr.live / text

‹ back to catalog

STARLINK-2162

NORAD 47748 · 2021-017AC

PAYLOAD ACTIVE UNKNOWN

§ Identity

Operator
Country
US
Launch date
2021-03-04
Launch site
AFETR
Launch vehicle
Mass (kg)
RCS (m²)

Purposes: comms

External: N2YO · Heavens-Above · Gunter

§ Orbital elements

Epoch: 2026-07-12T22:56:24.559584Z

Period
88.25 min
Inclination
53.1391°
Eccentricity
0.0012207
Mean motion
16.31693497 rev/d
Perigee alt
180.0 km
Apogee alt
196.0 km
Semi-major
6,566.1 km
B*
8.4363e-4
RAAN
293.8157°
Arg perigee
318.7694°
Mean anomaly
41.2428°
Rev number
29,769

§ Raw data

STARLINK-21621 47748U 21017AC  26193.95583981  .04767012  12174-4  84363-3 0  99932 47748  53.1391 293.8157 0012207 318.7694  41.2428 16.31693497297692

JSON: /api/v1/satellites/47748 · /tle

For live sub-satellite position, see the globe view (requires WebGL).

§ Visibility from observer

Set your observer location to see the next 7 days of passes ≥ 10°. The values pass through the URL so the page stays shareable.

No JS? Fill the form by hand. The geolocation button needs JavaScript.